FW8253 Weather Reports


time (UTC)temp
F
wind
direction
speed
knots
gust
knots
rain 1hr
in
rain 24hr
in
rain mn
in
humidity
%
barometer
mb
20260902200522 97 237 0.0 0.0 0.00 0.00 0.00 58 1017.6
20260902200018 97 246 0.0 0.0 0.00 0.00 0.00 60 1017.3
20260902195514 97 229 0.0 0.0 0.00 0.00 0.00 60 1017.6
20260902195013 97 255 0.0 0.0 0.00 0.00 0.00 61 1017.8
20260902194507 98 242 0.0 0.0 0.00 0.00 0.00 58 1017.9
20260902194002 98 236 0.0 0.0 0.00 0.00 0.00 55 1017.8
20260902193458 99 225 0.0 0.0 0.00 0.00 0.00 53 1017.7
20260902192956 99 156 0.0 0.0 0.00 0.00 0.00 52 1018.1
20260902192456 100 180 0.0 0.0 0.00 0.00 0.00 52 1017.9
20260902191954 100 243 0.0 0.0 0.00 0.00 0.00 51 1017.7
20260902191450 98 244 0.0 0.0 0.00 0.00 0.00 53 1018.0
20260902190945 95 182 0.0 0.0 0.00 0.00 0.00 57 1018.1
20260902190440 95 330 0.0 0.0 0.00 0.00 0.00 60 1018.1
20260902185936 95 229 0.0 0.0 0.00 0.00 0.00 61 1018.2
20260902185432 96 227 0.0 0.0 0.00 0.00 0.00 61 1018.0
20260902184927 95 254 0.0 0.0 0.00 0.00 0.00 59 1018.1
20260902184422 95 192 0.0 0.0 0.00 0.00 0.00 58 1018.1
20260902183918 94 228 0.0 0.0 0.00 0.00 0.00 62 1018.3
20260902183414 94 271 0.0 0.0 0.00 0.00 0.00 58 1018.4
20260902182909 95 235 0.0 0.0 0.00 0.00 0.00 61 1018.5
20260902182406 98 247 0.0 0.0 0.00 0.00 0.00 57 1018.7
20260902181902 99 34 0.0 0.0 0.00 0.00 0.00 53 1018.6
20260902181357 97 181 0.0 0.0 0.00 0.00 0.00 56 1018.7
20260902180857 96 327 0.0 0.0 0.00 0.00 0.00 56 1018.4
20260902180352 94 241 0.0 0.0 0.00 0.00 0.00 58 1018.7
20260902175847 95 231 0.0 0.0 0.00 0.00 0.00 58 1018.9
20260902175343 95 56 0.0 0.0 0.00 0.00 0.00 56 1018.7
20260902174838 96 230 0.0 0.0 0.00 0.00 0.00 56 1019.0
20260902174335 95 226 0.0 0.0 0.00 0.00 0.00 57 1018.9
20260902173825 96 246 0.0 0.0 0.00 0.00 0.00 58 1019.0
20260902173324 98 221 0.0 0.0 0.00 0.00 0.00 56 1019.1
20260902172818 97 113 0.0 0.0 0.00 0.00 0.00 56 1019.0
20260902172313 97 50 0.0 0.0 0.00 0.00 0.00 55 1019.1
20260902171808 94 144 0.0 0.0 0.00 0.00 0.00 60 1019.4
20260902171303 94 236 0.0 0.0 0.00 0.00 0.00 64 1019.4
20260902170800 95 229 0.0 0.0 0.00 0.00 0.00 61 1019.4
20260902170255 96 154 0.0 0.0 0.00 0.00 0.00 59 1019.5
20260902165750 96 234 0.0 0.0 0.00 0.00 0.00 59 1019.4
20260902165250 98 85 0.0 0.0 0.00 0.00 0.00 56 1019.3
20260902164744 97 83 0.0 0.0 0.00 0.00 0.00 57 1019.5
20260902164238 96 12 0.0 0.0 0.00 0.00 0.00 57 1019.5
20260902163734 96 182 0.0 0.0 0.00 0.00 0.00 58 1019.8
20260902163233 96 126 0.0 0.0 0.00 0.00 0.00 58 1019.4
20260902162732 96 220 0.0 0.0 0.00 0.00 0.00 60 1019.8
20260902162226 95 222 0.0 0.0 0.00 0.00 0.00 60 1019.7
20260902161722 96 100 0.0 0.0 0.00 0.00 0.00 59 1019.9
20260902161217 96 223 0.0 0.0 0.00 0.00 0.00 59 1019.8
20260902160714 96 160 0.0 0.0 0.00 0.00 0.00 56 1019.9
20260902160208 95 223 0.0 0.0 0.00 0.00 0.00 59 1019.9
20260902155706 94 233 0.0 0.0 0.00 0.00 0.00 62 1019.9
20260902155205 93 192 0.0 0.0 0.00 0.00 0.00 62 1020.1
20260902154700 93 207 0.0 0.0 0.00 0.00 0.00 60 1020.0
20260902154155 94 207 0.0 0.0 0.00 0.00 0.00 57 1020.1
20260902153655 94 267 0.0 0.0 0.00 0.00 0.00 63 1020.2
20260902153149 93 219 0.0 0.0 0.00 0.00 0.00 64 1020.1
20260902152646 92 196 0.0 0.0 0.00 0.00 0.00 63 1020.3
20260902152141 92 249 0.0 0.0 0.00 0.00 0.00 65 1020.1
20260902151636 92 216 0.0 0.0 0.00 0.00 0.00 64 1020.1
20260902151131 93 223 0.0 0.0 0.00 0.00 0.00 65 1020.2
20260902150626 92 167 0.0 0.0 0.00 0.00 0.00 65 1020.1
20260902150121 91 230 0.0 0.0 0.00 0.00 0.00 67 1020.0
20260902145616 91 212 0.0 0.0 0.00 0.00 0.00 70 1020.2
20260902145115 91 135 0.0 0.0 0.00 0.00 0.00 69 1020.1
20260902144612 92 339 0.0 0.0 0.00 0.00 0.00 69 1020.1
20260902144112 90 224 0.0 0.0 0.00 0.00 0.00 71 1020.3
20260902143607 90 157 0.0 0.0 0.00 0.00 0.00 74 1020.3
20260902143103 89 28 0.0 0.0 0.00 0.00 0.00 75 1020.3
20260902142558 90 148 0.0 0.0 0.00 0.00 0.00 75 1020.2
20260902142054 90 149 0.0 0.0 0.00 0.00 0.00 75 1020.2
20260902141548 88 161 0.0 0.0 0.00 0.00 0.00 76 1020.2
20260902141043 88 83 0.0 0.0 0.00 0.00 0.00 75 1020.3
20260902140538 86 195 0.0 0.0 0.00 0.00 0.00 80 1020.3
20260902140033 87 93 0.0 0.0 0.00 0.00 0.00 80 1020.1
20260902135532 85 167 0.0 0.0 0.00 0.00 0.00 82 1020.2
20260902135027 84 170 0.0 0.0 0.00 0.00 0.00 85 1020.4
20260902134524 82 201 0.0 0.0 0.00 0.00 0.00 88 1020.3
20260902134023 82 201 0.0 0.0 0.00 0.00 0.00 88 1020.2
20260902133523 82 213 0.0 0.0 0.00 0.00 0.00 87 1020.5
20260902133018 82 252 0.0 0.0 0.00 0.00 0.00 89 1020.2
20260902132513 81 252 0.0 0.0 0.00 0.00 0.00 90 1020.2
20260902132009 80 283 0.0 0.0 0.00 0.00 0.00 90 1020.4
20260902131505 80 178 0.0 0.0 0.00 0.00 0.00 91 1020.4
20260902131004 80 178 0.0 0.0 0.00 0.00 0.00 92 1020.4
20260902130501 79 178 0.0 0.0 0.00 0.00 0.00 94 1020.3
20260902125955 78 177 0.0 0.0 0.00 0.00 0.00 95 1020.4
20260902125452 77 177 0.0 0.0 0.00 0.00 0.00 98 1020.3
20260902124947 76 177 0.0 0.0 0.00 0.00 0.00 99 1020.3
20260902124443 75 177 0.0 0.0 0.00 0.00 0.00 99 1020.4
20260902123938 75 177 0.0 0.0 0.00 0.00 0.00 99 1020.3
20260902123434 74 177 0.0 0.0 0.00 0.00 0.00 99 1020.4
20260902122932 74 177 0.0 0.0 0.00 0.00 0.00 99 1020.4
20260902122428 74 177 0.0 0.0 0.00 0.00 0.00 99 1020.5
20260902121924 73 177 0.0 0.0 0.00 0.00 0.00 99 1020.5
20260902121418 73 177 0.0 0.0 0.00 0.00 0.00 99 1020.5
20260902120913 73 177 0.0 0.0 0.00 0.00 0.00 99 1020.5
20260902120410 73 177 0.0 0.0 0.00 0.00 0.00 99 1020.4
20260902115909 73 177 0.0 0.0 0.00 0.00 0.00 99 1020.4
20260902115405 73 177 0.0 0.0 0.00 0.00 0.00 99 1020.2
20260902114902 72 177 0.0 0.0 0.00 0.00 0.00 99 1020.0
20260902114357 72 177 0.0 0.0 0.00 0.00 0.00 99 1020.2
20260902113857 72 177 0.0 0.0 0.00 0.00 0.00 99 1020.2
20260902113353 72 177 0.0 0.0 0.00 0.00 0.00 99 1020.2
20260902112852 72 177 0.0 0.0 0.00 0.00 0.00 99 1019.9
20260902112349 72 177 0.0 0.0 0.00 0.00 0.00 99 1020.1
20260902111844 72 177 0.0 0.0 0.00 0.00 0.00 99 1020.0
20260902111341 72 177 0.0 0.0 0.00 0.00 0.00 99 1020.0
20260902110836 72 177 0.0 0.0 0.00 0.00 0.00 99 1019.9
20260902110332 72 177 0.0 0.0 0.00 0.00 0.00 99 1019.9
20260902105831 72 177 0.0 0.0 0.00 0.00 0.00 99 1019.8
20260902105326 72 177 0.0 0.0 0.00 0.00 0.00 99 1019.9
20260902104821 72 177 0.0 0.0 0.00 0.00 0.00 99 1019.8
20260902104318 72 177 0.0 0.0 0.00 0.00 0.00 99 1019.8
20260902103818 72 177 0.0 0.0 0.00 0.00 0.00 99 1019.9
20260902103312 72 177 0.0 0.0 0.00 0.00 0.00 99 1019.8
20260902102808 72 177 0.0 0.0 0.00 0.00 0.00 99 1019.6
20260902102307 72 177 0.0 0.0 0.00 0.00 0.00 99 1019.8
20260902101801 72 177 0.0 0.0 0.00 0.00 0.00 99 1019.6
20260902101255 73 177 0.0 0.0 0.00 0.00 0.00 99 1019.5
20260902100755 73 177 0.0 0.0 0.00 0.00 0.00 99 1019.3
20260902100249 72 178 0.0 0.0 0.00 0.00 0.00 99 1019.5
20260902095743 72 179 0.0 0.0 0.00 0.00 0.00 99 1019.5
20260902095238 73 179 0.0 0.0 0.00 0.00 0.00 99 1019.7
20260902094732 73 179 0.0 0.0 0.00 0.00 0.00 99 1019.5
20260902094229 73 179 0.0 0.0 0.00 0.00 0.00 99 1019.5
20260902093728 73 179 0.0 0.0 0.00 0.00 0.00 99 1019.4
20260902093224 73 179 0.0 0.0 0.00 0.00 0.00 99 1019.4
20260902092723 73 179 0.0 0.0 0.00 0.00 0.00 99 1019.6
20260902092218 73 179 0.0 0.0 0.00 0.00 0.00 99 1019.3
20260902091718 73 179 0.0 0.0 0.00 0.00 0.00 99 1019.4
20260902091214 73 179 0.0 0.0 0.00 0.00 0.00 99 1019.1
20260902090710 73 179 0.0 0.0 0.00 0.00 0.00 99 1019.1
20260902090209 73 179 0.0 0.0 0.00 0.00 0.00 99 1019.2
20260902085704 73 179 0.0 0.0 0.00 0.00 0.00 99 1019.2
20260902085159 73 179 0.0 0.0 0.00 0.00 0.00 99 1019.2
20260902084655 73 179 0.0 0.0 0.00 0.00 0.00 99 1019.2
20260902084151 73 179 0.0 0.0 0.00 0.00 0.00 99 1019.3
20260902083646 73 179 0.0 0.0 0.00 0.00 0.00 99 1018.9
20260902083145 73 179 0.0 0.0 0.00 0.00 0.00 99 1019.3
20260902082641 73 179 0.0 0.0 0.00 0.00 0.00 99 1019.0
20260902082137 74 178 0.0 0.0 0.00 0.00 0.00 99 1019.0
20260902081633 74 179 0.0 0.0 0.00 0.00 0.00 99 1019.0
20260902081128 74 180 0.0 0.0 0.00 0.00 0.00 99 1019.0
20260902080623 74 180 0.0 0.0 0.00 0.00 0.00 99 1018.9
20260902080120 74 180 0.0 0.0 0.00 0.00 0.00 99 1019.0
20260902075619 74 180 0.0 0.0 0.00 0.00 0.00 99 1018.8
20260902075116 74 180 0.0 0.0 0.00 0.00 0.00 99 1018.9
20260902074611 74 180 0.0 0.0 0.00 0.00 0.00 99 1018.8
20260902074106 74 180 0.0 0.0 0.00 0.00 0.00 99 1018.8
20260902073601 74 180 0.0 0.0 0.00 0.00 0.00 99 1018.9
20260902073058 74 180 0.0 0.0 0.00 0.00 0.00 99 1018.8
20260902072553 74 180 0.0 0.0 0.00 0.00 0.00 99 1018.8
20260902072050 74 180 0.0 0.0 0.00 0.00 0.00 99 1018.8
20260902071549 75 180 0.0 0.0 0.00 0.00 0.00 99 1018.7
20260902071045 75 180 0.0 0.0 0.00 0.00 0.00 99 1018.8
20260902070540 75 180 0.0 0.0 0.00 0.00 0.00 98 1018.7
20260902070035 75 180 0.0 0.0 0.00 0.00 0.00 98 1019.0
20260902065529 75 180 0.0 0.0 0.00 0.00 0.00 98 1018.7
20260902065024 75 180 0.0 0.0 0.00 0.00 0.00 98 1019.0
20260902064520 75 180 0.0 0.0 0.00 0.00 0.00 98 1019.0
20260902064016 75 180 0.0 0.0 0.00 0.00 0.00 98 1018.9
20260902063515 75 180 0.0 0.0 0.00 0.00 0.00 98 1019.3
20260902063011 75 180 0.0 0.0 0.00 0.00 0.00 97 1019.3
20260902062509 75 180 0.0 0.0 0.00 0.00 0.00 97 1019.4
20260902062005 75 180 0.0 0.0 0.00 0.00 0.00 97 1019.2
20260902061505 75 180 0.0 0.0 0.00 0.00 0.00 97 1019.2
20260902061001 76 180 0.0 0.0 0.00 0.00 0.00 97 1019.3
20260902060457 76 180 0.0 0.0 0.00 0.00 0.00 97 1019.1
20260902055953 76 180 0.0 0.0 0.00 0.00 0.00 97 1019.2
20260902055449 76 180 0.0 0.0 0.00 0.00 0.00 97 1019.2
20260902054944 76 180 0.0 0.0 0.00 0.00 0.00 96 1019.2
20260902054439 76 180 0.0 0.0 0.00 0.00 0.00 96 1019.3
20260902053934 76 180 0.0 0.0 0.00 0.00 0.00 96 1019.3
20260902053430 76 180 0.0 0.0 0.00 0.00 0.00 95 1019.1
20260902052929 76 176 0.0 0.0 0.00 0.00 0.00 95 1019.3
20260902052424 77 176 0.0 0.0 0.00 0.00 0.00 95 1019.5
20260902051919 77 176 0.0 0.0 0.00 0.00 0.00 94 1019.3
20260902051414 77 176 0.0 0.0 0.00 0.00 0.00 94 1019.1
20260902050912 77 177 0.0 0.0 0.00 0.00 0.00 94 1019.2
20260902050413 77 177 0.0 0.0 0.00 0.00 0.00 94 1019.2
20260902045908 77 177 0.0 0.0 0.00 0.00 0.00 94 1019.2
20260902045403 77 177 0.0 0.0 0.00 0.00 0.00 93 1019.1
20260902044859 77 177 0.0 0.0 0.00 0.00 0.00 93 1019.2
20260902044354 77 177 0.0 0.0 0.00 0.00 0.00 93 1019.2
20260902043849 77 177 0.0 0.0 0.00 0.00 0.00 93 1019.1
20260902043344 77 177 0.0 0.0 0.00 0.00 0.00 93 1019.0
20260902042839 77 177 0.0 0.0 0.00 0.00 0.00 93 1019.1
20260902042338 77 177 0.0 0.0 0.00 0.00 0.00 92 1019.2
20260902041834 78 177 0.0 0.0 0.00 0.00 0.00 92 1019.0
20260902041334 78 177 0.0 0.0 0.00 0.00 0.00 92 1019.0
20260902040832 78 178 0.0 0.0 0.00 0.00 0.00 92 1019.0
20260902040328 78 178 0.0 0.0 0.00 0.00 0.00 92 1019.2
20260902035827 78 178 0.0 0.0 0.00 0.00 0.00 92 1018.8
20260902035323 78 177 0.0 0.0 0.00 0.00 0.00 92 1019.1
20260902034821 78 179 0.0 0.0 0.00 0.00 0.00 92 1019.1
20260902034317 77 180 0.0 0.0 0.00 0.00 0.00 92 1019.1
20260902033814 78 180 0.0 0.0 0.00 0.00 0.00 92 1019.0
20260902033310 78 180 0.0 0.0 0.00 0.00 0.00 92 1019.0
20260902032809 78 180 0.0 0.0 0.00 0.00 0.00 91 1018.9
20260902032306 78 181 0.0 0.0 0.00 0.00 0.00 91 1019.1
20260902031803 78 188 0.0 0.0 0.00 0.00 0.00 91 1019.0
20260902031300 78 175 0.0 0.0 0.00 0.00 0.00 91 1018.9
20260902030755 78 176 0.0 0.0 0.00 0.00 0.00 91 1018.7
20260902030250 78 176 0.0 0.0 0.00 0.00 0.00 90 1018.9
20260902025749 78 176 0.0 0.0 0.00 0.00 0.00 90 1019.0
20260902025244 78 176 0.0 0.0 0.00 0.00 0.00 90 1018.8
20260902024738 79 176 0.0 0.0 0.00 0.00 0.00 90 1018.8
20260902024234 79 176 0.0 0.0 0.00 0.00 0.00 90 1018.8
20260902023730 79 176 0.0 0.0 0.00 0.00 0.00 90 1019.0
20260902023225 79 176 0.0 0.0 0.00 0.00 0.00 89 1018.7
20260902022724 79 176 0.0 0.0 0.00 0.00 0.00 89 1018.8
20260902022220 79 176 0.0 0.0 0.00 0.00 0.00 89 1018.8
20260902021715 80 176 0.0 0.0 0.00 0.00 0.00 88 1018.6
20260902021209 80 187 0.0 0.0 0.00 0.00 0.00 88 1018.8
20260902020706 80 204 0.0 0.0 0.00 0.00 0.00 88 1018.6
20260902020201 80 204 0.0 0.0 0.00 0.00 0.00 87 1018.7
20260902015656 80 206 0.0 0.0 0.00 0.00 0.00 87 1018.3
20260902015153 80 206 0.0 0.0 0.00 0.00 0.00 87 1018.6
20260902014649 80 206 0.0 0.0 0.00 0.00 0.00 87 1018.5
20260902014144 80 205 0.0 0.0 0.00 0.00 0.00 86 1018.6
20260902013643 81 208 0.0 0.0 0.00 0.00 0.00 86 1018.3
20260902013139 81 209 0.0 0.0 0.00 0.00 0.00 86 1018.3
20260902012635 81 209 0.0 0.0 0.00 0.00 0.00 86 1018.1
20260902012130 81 209 0.0 0.0 0.00 0.00 0.00 85 1018.2
20260902011625 81 209 0.0 0.0 0.00 0.00 0.00 85 1018.0
20260902011126 81 209 0.0 0.0 0.00 0.00 0.00 85 1017.8
20260902010624 81 209 0.0 0.0 0.00 0.00 0.00 85 1017.9
20260902010120 82 209 0.0 0.0 0.00 0.00 0.00 85 1017.6
20260902005618 82 209 0.0 0.0 0.00 0.00 0.00 85 1017.9
20260902005115 82 209 0.0 0.0 0.00 0.00 0.00 85 1017.6
20260902004614 83 209 0.0 0.0 0.00 0.00 0.00 83 1017.7
20260902004109 83 209 0.0 0.0 0.00 0.00 0.00 83 1017.8
20260902003604 83 209 0.0 0.0 0.00 0.00 0.00 82 1017.7
20260902003100 84 209 0.0 0.0 0.00 0.00 0.00 82 1017.6
20260902002555 84 210 0.0 0.0 0.00 0.00 0.00 81 1017.4
20260902002050 84 210 0.0 0.0 0.00 0.00 0.00 80 1017.7
20260902001544 85 210 0.0 0.0 0.00 0.00 0.00 80 1017.6
20260902001040 85 219 0.0 0.0 0.00 0.00 0.00 80 1017.5
20260902000534 85 219 0.0 0.0 0.00 0.00 0.00 80 1017.6
20260902000030 86 219 0.0 0.0 0.00 0.00 0.00 80 1017.6
20260901235524 86 219 0.0 0.0 0.00 0.00 0.00 79 1017.7
20260901235020 86 220 0.0 0.0 0.00 0.00 0.00 79 1017.6
20260901234518 86 234 0.0 0.0 0.00 0.00 0.00 78 1017.8
20260901234014 87 234 0.0 0.0 0.00 0.00 0.00 78 1017.6
20260901233509 87 229 0.0 0.0 0.00 0.00 0.00 76 1017.8
20260901233005 87 234 0.0 0.0 0.00 0.00 0.00 76 1017.7
20260901232500 87 234 0.0 0.0 0.00 0.00 0.00 76 1017.5
20260901231955 87 223 0.0 0.0 0.00 0.00 0.00 75 1017.8
20260901231451 88 226 0.0 0.0 0.00 0.00 0.00 75 1017.7
20260901230948 88 231 0.0 0.0 0.00 0.00 0.00 74 1017.5
20260901230447 88 225 0.0 0.0 0.00 0.00 0.00 72 1017.8
20260901225942 88 225 0.0 0.0 0.00 0.00 0.00 72 1017.6
20260901225442 89 228 0.0 0.0 0.00 0.00 0.00 71 1017.6
20260901224937 89 228 0.0 0.0 0.00 0.00 0.00 71 1017.7
20260901224433 89 227 0.0 0.0 0.00 0.00 0.00 70 1017.6
20260901223929 89 226 0.0 0.0 0.00 0.00 0.00 72 1017.6
20260901223424 89 226 0.0 0.0 0.00 0.00 0.00 72 1017.4
20260901222920 89 230 0.0 0.0 0.00 0.00 0.00 71 1017.4
20260901222416 89 226 0.0 0.0 0.00 0.00 0.00 71 1017.4
20260901221912 89 237 0.0 0.0 0.00 0.00 0.00 70 1017.5
20260901221408 88 235 0.0 0.0 0.00 0.00 0.00 71 1017.5
20260901220902 88 233 0.0 0.0 0.00 0.00 0.00 71 1017.6
20260901220401 89 233 0.0 0.0 0.00 0.00 0.00 71 1017.4
20260901215900 89 234 0.0 0.0 0.00 0.00 0.00 69 1017.8
20260901215359 90 227 0.0 0.0 0.00 0.00 0.00 67 1017.5
20260901214858 91 229 0.0 0.0 0.00 0.00 0.00 65 1017.7
20260901214357 91 235 0.0 0.0 0.00 0.00 0.00 63 1017.7
20260901213856 92 220 0.0 0.0 0.00 0.00 0.00 64 1017.5
20260901213352 93 231 0.0 0.0 0.00 0.00 0.00 60 1017.2
20260901212851 94 92 0.0 0.0 0.00 0.00 0.00 58 1017.8
20260901212347 95 222 0.0 0.0 0.00 0.00 0.00 59 1017.5
20260901211843 96 244 0.0 0.0 0.00 0.00 0.00 55 1017.6
20260901211338 96 246 0.0 0.0 0.00 0.00 0.00 54 1017.5
20260901210834 97 98 0.0 0.0 0.00 0.00 0.00 52 1017.5
20260901210329 98 145 0.0 0.0 0.00 0.00 0.00 51 1017.4
20260901205825 99 243 0.0 0.0 0.00 0.00 0.00 49 1017.4
20260901205320 98 163 0.0 0.0 0.00 0.00 0.00 49 1017.5
20260901204815 98 164 0.0 0.0 0.00 0.00 0.00 49 1017.4
20260901204311 98 262 0.0 0.0 0.00 0.00 0.00 53 1017.6
20260901203811 98 153 0.0 0.0 0.00 0.00 0.00 55 1017.4
20260901203306 97 234 0.0 0.0 0.00 0.00 0.00 57 1017.7
20260901202800 96 232 0.0 0.0 0.00 0.00 0.00 55 1017.6
20260901202255 93 246 0.0 0.0 0.00 0.00 0.00 60 1017.8
20260901201751 91 243 0.0 0.0 0.00 0.00 0.00 65 1017.7
20260901201250 91 249 0.0 0.0 0.00 0.00 0.00 67 1017.8